Weather History for Grants-Milan, NM

Change the Weather History Date:

Thursday, September 20, 2012

  Actual Average Record
Temperature  
Mean Temperature 58 °F -  
Max Temperature 82 °F 77 °F 88 °F (2005)
Min Temperature 35 °F 44 °F 24 °F (1971)
Degree Days  
Heating Degree Days 6    
Growing Degree Days 8 (Base 50)    
Moisture  
Dew Point 28 °F    
Average Humidity 38    
Maximum Humidity 87    
Minimum Humidity 10    
Precipitation  
Precipitation 0.00 in - - ()
Sea Level Pressure  
Sea Level Pressure 30.29 in    
Wind  
Wind Speed 6 mph (NNW)    
Max Wind Speed 16 mph    
Max Gust Speed 21 mph    
Visibility 10 miles    
Events      
Averages and records for this station are not official NWS values.
T = Trace of Precipitation, MM = Missing Value Source: NWS Daily Summary

Daily Weather History Graph

Daily Weather History Graph

Search for Another Location

Airport:

Trip Planner

Search our weather history database for the weather conditions in past years. The results will help you decide how hot, cold, wet, or windy it might be!

Date:

Astronomy

Sep. 20, 2012 Rise Set
Actual Time 6:58 AM MDT 7:10 PM MDT
Civil Twilight 6:33 AM MDT 7:35 PM MDT
Nautical Twilight 6:03 AM MDT 8:05 PM MDT
Astronomical Twilight 5:33 AM MDT 8:35 PM MDT
Moon 12:06 PM MDT (9/20) 10:28 PM MDT (9/20)
Length of Visible Light 13h 02m
Length of Day
12h 11m
Waxing Crescent, 27% of the Moon is Illuminated
Sep 20
Waxing Crescent
Sep 22
First Quarter
Sep 29
Full
Oct 8
Last Quarter
Oct 15
New

Hourly Weather History & Observations

Time (MDT) Temp. Windchill Dew Point Humidity Pressure Visibility Wind Dir Wind Speed Gust Speed Precip Events Conditions
12:15 AM 48.2 °F - 32.0 °F 54% 30.32 in 10.0 mi NW 6.9 mph - N/A   Clear
12:35 AM 48.2 °F - 32.0 °F 54% 30.32 in 10.0 mi NNW 6.9 mph - N/A   Clear
12:55 AM 46.4 °F 42.9 °F 32.0 °F 57% 30.32 in 10.0 mi NW 6.9 mph - N/A   Clear
1:15 AM 46.4 °F 43.5 °F 30.2 °F 53% 30.32 in 10.0 mi NW 5.8 mph - N/A   Clear
1:35 AM 50.0 °F - 30.2 °F 47% 30.32 in 10.0 mi WNW 6.9 mph - N/A   Clear
1:55 AM 46.4 °F 43.5 °F 32.0 °F 57% 30.32 in 10.0 mi West 5.8 mph - N/A   Clear
2:15 AM 44.6 °F 42.2 °F 32.0 °F 61% 30.32 in 10.0 mi WNW 4.6 mph - N/A   Clear
2:35 AM 46.4 °F 42.9 °F 32.0 °F 57% 30.32 in 10.0 mi WNW 6.9 mph - N/A   Clear
2:55 AM 44.6 °F 41.4 °F 32.0 °F 61% 30.32 in 10.0 mi WNW 5.8 mph - N/A   Clear
3:15 AM 42.8 °F 38.6 °F 32.0 °F 66% 30.32 in 10.0 mi NW 6.9 mph - N/A   Clear
3:55 AM 42.8 °F 38.6 °F 32.0 °F 66% 30.32 in 10.0 mi NW 6.9 mph - N/A   Clear
4:15 AM 42.8 °F 38.6 °F 32.0 °F 66% 30.31 in 10.0 mi WNW 6.9 mph - N/A   Clear
4:35 AM 42.8 °F 38.0 °F 32.0 °F 66% 30.32 in 10.0 mi NNW 8.1 mph - N/A   Clear
4:55 AM 41.0 °F 36.4 °F 32.0 °F 70% 30.32 in 10.0 mi NW 6.9 mph - N/A   Clear
5:15 AM 39.2 °F 35.0 °F 32.0 °F 75% 30.32 in 10.0 mi NNW 5.8 mph - N/A   Clear
5:35 AM 39.2 °F 37.0 °F 32.0 °F 75% 30.32 in 10.0 mi WNW 3.5 mph - N/A   Clear
5:55 AM 39.2 °F 35.0 °F 32.0 °F 75% 30.32 in 10.0 mi NW 5.8 mph - N/A   Clear
6:15 AM 39.2 °F 35.9 °F 32.0 °F 75% 30.33 in 10.0 mi NW 4.6 mph - N/A   Clear
6:35 AM 37.4 °F - 32.0 °F 81% 30.33 in 10.0 mi Calm Calm - N/A   Clear
6:55 AM 37.4 °F - 32.0 °F 81% 30.33 in 10.0 mi Calm Calm - N/A   Clear
7:15 AM 35.6 °F 32.8 °F 32.0 °F 87% 30.33 in 10.0 mi NNW 3.5 mph - N/A   Clear
7:35 AM 39.2 °F - 32.0 °F 75% 30.34 in 10.0 mi Calm Calm - N/A   Clear
7:55 AM 42.8 °F - 32.0 °F 66% 30.34 in 10.0 mi Calm Calm - N/A   Clear
8:15 AM 44.6 °F 43.1 °F 32.0 °F 61% 30.35 in 10.0 mi NNW 3.5 mph - N/A   Clear
8:35 AM 48.2 °F - 32.0 °F 54% 30.35 in 10.0 mi NNW 3.5 mph - N/A   Clear
8:55 AM 51.8 °F - 32.0 °F 47% 30.35 in 10.0 mi NW 3.5 mph - N/A   Clear
9:15 AM 55.4 °F - 30.2 °F 38% 30.35 in 10.0 mi NNW 3.5 mph - N/A   Clear
9:35 AM 57.2 °F - 30.2 °F 36% 30.35 in 10.0 mi Calm Calm - N/A   Clear
9:55 AM 60.8 °F - 30.2 °F 31% 30.35 in 10.0 mi Calm Calm - N/A   Clear
10:15 AM 62.6 °F - 30.2 °F 30% 30.35 in 10.0 mi Calm Calm - N/A   Clear
10:35 AM 64.4 °F - 30.2 °F 28% 30.35 in 10.0 mi Calm Calm - N/A   Clear
10:55 AM 68.0 °F - 32.0 °F 26% 30.35 in 10.0 mi North 3.5 mph - N/A   Clear
11:15 AM 69.8 °F - 32.0 °F 25% 30.34 in 10.0 mi Calm Calm - N/A   Clear
11:35 AM 73.4 °F - 30.2 °F 20% 30.34 in 10.0 mi NNE 6.9 mph - N/A   Clear
11:55 AM 77.0 °F - 28.4 °F 17% 30.32 in 10.0 mi NNE 9.2 mph - N/A   Clear
12:15 PM 78.8 °F - 24.8 °F 14% 30.32 in 10.0 mi North 9.2 mph - N/A   Clear
12:35 PM 78.8 °F - 21.2 °F 12% 30.31 in 10.0 mi NNW 8.1 mph - N/A   Clear
12:55 PM 78.8 °F - 21.2 °F 12% 30.31 in 10.0 mi North 8.1 mph 18.4 mph N/A   Clear
1:15 PM 80.6 °F - 23.0 °F 12% 30.30 in 10.0 mi NE 10.4 mph 16.1 mph N/A   Clear
1:35 PM 80.6 °F - 23.0 °F 12% 30.29 in 10.0 mi North 5.8 mph 18.4 mph N/A   Clear
1:55 PM 82.4 °F - 23.0 °F 11% 30.28 in 10.0 mi NNW 16.1 mph 20.7 mph N/A   Clear
2:15 PM 80.6 °F - 21.2 °F 11% 30.27 in 10.0 mi North 5.8 mph 18.4 mph N/A   Clear
2:35 PM 82.4 °F - 21.2 °F 10% 30.26 in 10.0 mi NNE 11.5 mph 17.3 mph N/A   Clear
2:55 PM 82.4 °F - 21.2 °F 10% 30.25 in 10.0 mi NNW 13.8 mph 20.7 mph N/A   Clear
3:15 PM 80.6 °F - 21.2 °F 11% 30.24 in 10.0 mi NW 5.8 mph 18.4 mph N/A   Clear
3:35 PM 82.4 °F - 21.2 °F 10% 30.24 in 10.0 mi NNE 8.1 mph 16.1 mph N/A   Clear
3:55 PM 82.4 °F - 21.2 °F 10% 30.23 in 10.0 mi NNE 11.5 mph 20.7 mph N/A   Clear
4:15 PM 82.4 °F - 21.2 °F 10% 30.23 in 10.0 mi North 8.1 mph - N/A   Clear
4:35 PM 82.4 °F - 21.2 °F 10% 30.23 in 10.0 mi North 6.9 mph 18.4 mph N/A   Clear
4:55 PM 80.6 °F - 19.4 °F 10% 30.22 in 10.0 mi NE 8.1 mph 16.1 mph N/A   Clear
5:15 PM 80.6 °F - 19.4 °F 10% 30.21 in 10.0 mi NNE 8.1 mph - N/A   Clear
5:35 PM 80.6 °F - 19.4 °F 10% 30.21 in 10.0 mi North 6.9 mph - N/A   Clear
5:55 PM 80.6 °F - 21.2 °F 11% 30.21 in 10.0 mi North 11.5 mph - N/A   Clear
6:15 PM 78.8 °F - 21.2 °F 12% 30.21 in 10.0 mi NNW 4.6 mph - N/A   Clear
6:35 PM 78.8 °F - 21.2 °F 12% 30.21 in 10.0 mi NNW 8.1 mph - N/A   Clear
6:55 PM 77.0 °F - 21.2 °F 12% 30.21 in 10.0 mi North 4.6 mph - N/A   Clear
7:15 PM 69.8 °F - 23.0 °F 17% 30.22 in 10.0 mi Calm Calm - N/A   Clear
7:35 PM 62.6 °F - 28.4 °F 27% 30.23 in 10.0 mi WNW 5.8 mph - N/A   Clear
7:55 PM 64.4 °F - 24.8 °F 22% 30.23 in 10.0 mi NW 5.8 mph - N/A   Clear
8:15 PM 62.6 °F - 26.6 °F 26% 30.24 in 10.0 mi NW 5.8 mph - N/A   Clear
8:55 PM 59.0 °F - 26.6 °F 29% 30.25 in 10.0 mi West 5.8 mph - N/A   Clear
9:15 PM 57.2 °F - 28.4 °F 33% 30.26 in 10.0 mi Calm Calm - N/A   Clear
9:35 PM 55.4 °F - 28.4 °F 36% 30.26 in 10.0 mi Calm Calm - N/A   Clear
9:55 PM 51.8 °F - 28.4 °F 41% 30.27 in 10.0 mi Calm Calm - N/A   Clear
10:15 PM 50.0 °F - 28.4 °F 43% 30.27 in 10.0 mi Calm Calm - N/A   Clear
10:35 PM 48.2 °F - 30.2 °F 50% 30.28 in 10.0 mi NNW 4.6 mph - N/A   Clear
10:55 PM 50.0 °F - 30.2 °F 47% 30.28 in 10.0 mi WNW 5.8 mph - N/A   Clear
11:15 PM 51.8 °F - 28.4 °F 41% 30.28 in 10.0 mi NW 5.8 mph - N/A   Clear
11:35 PM 50.0 °F - 30.2 °F 47% 30.28 in 10.0 mi WNW 5.8 mph - N/A   Clear
11:55 PM 50.0 °F - 30.2 °F 47% 30.28 in 10.0 mi WNW 4.6 mph - N/A   Clear